| time (UTC) | temp F | wind direction | speed MPH | gust MPH | rain 1hr in | rain 24hr in | rain mn in | humidity % | barometer mb |
| 20260906233343 | 57 | 276 | 6.0 | 7.0 | 0.00 | 0.10 | 0.10 | 88 | 1024.4 |
| 20260906232838 | 57 | 252 | 4.0 | 4.0 | 0.07 | 0.10 | 0.10 | 88 | 1024.1 |
| 20260906232337 | 57 | 280 | 8.0 | 9.0 | 0.07 | 0.10 | 0.10 | 87 | 1024.2 |
| 20260906231832 | 57 | 280 | 8.0 | 8.0 | 0.07 | 0.10 | 0.10 | 86 | 1024.4 |
| 20260906231327 | 58 | 251 | 7.0 | 8.0 | 0.00 | 0.09 | 0.09 | 84 | 1024.2 |
| 20260906230827 | 58 | 265 | 8.0 | 8.0 | 0.00 | 0.09 | 0.09 | 84 | 1024.2 |
| 20260906230322 | 58 | 243 | 5.0 | 6.0 | 0.00 | 0.09 | 0.09 | 85 | 1024.1 |
| 20260906225820 | 58 | 261 | 6.0 | 8.0 | 0.00 | 0.09 | 0.09 | 83 | 1024.0 |
| 20260906225316 | 58 | 263 | 4.0 | 6.0 | 0.00 | 0.09 | 0.09 | 84 | 1023.9 |
| 20260906224811 | 58 | 242 | 4.0 | 4.0 | 0.00 | 0.09 | 0.09 | 83 | 1023.8 |
| 20260906224308 | 58 | 265 | 3.0 | 3.0 | 0.00 | 0.09 | 0.09 | 83 | 1024.0 |
| 20260906223804 | 58 | 259 | 6.0 | 7.0 | 0.05 | 0.09 | 0.09 | 83 | 1024.0 |
| 20260906223259 | 58 | 239 | 5.0 | 6.0 | 0.05 | 0.09 | 0.09 | 83 | 1023.9 |
| 20260906222757 | 58 | 252 | 5.0 | 7.0 | 0.00 | 0.08 | 0.08 | 82 | 1024.0 |
| 20260906222256 | 58 | 272 | 6.0 | 7.0 | 0.00 | 0.08 | 0.08 | 81 | 1023.9 |
| 20260906221754 | 58 | 265 | 6.0 | 7.0 | 0.00 | 0.08 | 0.08 | 80 | 1024.0 |
| 20260906221250 | 58 | 260 | 6.0 | 7.0 | 0.00 | 0.08 | 0.08 | 80 | 1024.0 |
| 20260906220745 | 58 | 293 | 6.0 | 7.0 | 0.00 | 0.08 | 0.08 | 82 | 1024.2 |
| 20260906220240 | 58 | 267 | 7.0 | 10.0 | 0.00 | 0.08 | 0.08 | 82 | 1023.9 |
| 20260906215739 | 58 | 232 | 5.0 | 6.0 | 0.00 | 0.08 | 0.08 | 82 | 1024.2 |
| 20260906215239 | 58 | 277 | 6.0 | 7.0 | 0.00 | 0.08 | 0.08 | 81 | 1024.1 |
| 20260906214737 | 58 | 252 | 8.0 | 10.0 | 0.00 | 0.08 | 0.08 | 81 | 1023.9 |
| 20260906214233 | 58 | 268 | 5.0 | 7.0 | 0.00 | 0.08 | 0.08 | 82 | 1024.1 |
| 20260906213731 | 58 | 286 | 7.0 | 8.0 | 0.00 | 0.08 | 0.08 | 80 | 1024.0 |
| 20260906213226 | 59 | 238 | 6.0 | 8.0 | 0.00 | 0.08 | 0.08 | 81 | 1024.0 |
| 20260906212723 | 58 | 288 | 9.0 | 13.0 | 0.00 | 0.08 | 0.08 | 80 | 1024.2 |
| 20260906212219 | 58 | 227 | 4.0 | 6.0 | 0.00 | 0.08 | 0.08 | 82 | 1024.2 |
| 20260906211718 | 58 | 303 | 8.0 | 9.0 | 0.00 | 0.08 | 0.08 | 82 | 1024.2 |
| 20260906211214 | 58 | 276 | 5.0 | 6.0 | 0.00 | 0.08 | 0.08 | 82 | 1024.1 |
| 20260906210709 | 58 | 260 | 8.0 | 10.0 | 0.00 | 0.08 | 0.08 | 82 | 1024.1 |
| 20260906210209 | 57 | 282 | 7.0 | 8.0 | 0.00 | 0.08 | 0.08 | 83 | 1024.5 |
| 20260906205659 | 57 | 260 | 4.0 | 4.0 | 0.00 | 0.08 | 0.08 | 86 | 1024.1 |
| 20260906205155 | 57 | 232 | 3.0 | 3.0 | 0.00 | 0.08 | 0.08 | 87 | 1024.2 |
| 20260906204654 | 58 | 248 | 4.0 | 6.0 | 0.00 | 0.08 | 0.08 | 87 | 1024.4 |
| 20260906204154 | 57 | 266 | 5.0 | 8.0 | 0.00 | 0.08 | 0.08 | 87 | 1024.6 |
| 20260906203654 | 57 | 271 | 6.0 | 7.0 | 0.00 | 0.08 | 0.08 | 86 | 1024.5 |
| 20260906203149 | 58 | 240 | 5.0 | 7.0 | 0.00 | 0.08 | 0.08 | 86 | 1024.6 |
| 20260906202646 | 57 | 265 | 6.0 | 8.0 | 0.00 | 0.08 | 0.08 | 84 | 1024.9 |
| 20260906202145 | 57 | 272 | 5.0 | 7.0 | 0.07 | 0.08 | 0.08 | 84 | 1024.6 |
| 20260906201641 | 57 | 268 | 6.0 | 7.0 | 0.07 | 0.08 | 0.08 | 84 | 1024.7 |
| 20260906201139 | 57 | 265 | 6.0 | 8.0 | 0.00 | 0.07 | 0.07 | 84 | 1025.0 |
| 20260906200636 | 58 | 258 | 4.0 | 6.0 | 0.00 | 0.07 | 0.07 | 83 | 1025.1 |
| 20260906200131 | 58 | 243 | 9.0 | 10.0 | 0.05 | 0.07 | 0.07 | 82 | 1024.9 |
| 20260906195626 | 58 | 234 | 6.0 | 7.0 | 0.12 | 0.07 | 0.07 | 83 | 1025.0 |
| 20260906195123 | 59 | 254 | 4.0 | 4.0 | 0.07 | 0.06 | 0.06 | 83 | 1025.0 |
| 20260906194619 | 59 | 221 | 5.0 | 6.0 | 0.12 | 0.06 | 0.06 | 80 | 1025.1 |
| 20260906194109 | 59 | 211 | 3.0 | 3.0 | 0.05 | 0.05 | 0.05 | 80 | 1025.0 |
| 20260906193608 | 59 | 239 | 2.0 | 3.0 | 0.00 | 0.04 | 0.04 | 80 | 1024.9 |
| 20260906193103 | 59 | 214 | 2.0 | 3.0 | 0.00 | 0.04 | 0.04 | 81 | 1025.0 |
| 20260906192559 | 59 | 236 | 4.0 | 4.0 | 0.07 | 0.04 | 0.04 | 81 | 1025.1 |
| 20260906192058 | 60 | 223 | 3.0 | 3.0 | 0.12 | 0.04 | 0.04 | 80 | 1024.6 |
| 20260906191553 | 60 | 228 | 3.0 | 3.0 | 0.05 | 0.03 | 0.03 | 78 | 1024.6 |
| 20260906191052 | 60 | 179 | 0.0 | 1.0 | 0.00 | 0.02 | 0.02 | 78 | 1025.0 |
| 20260906190552 | 60 | 181 | 1.0 | 2.0 | 0.07 | 0.02 | 0.02 | 76 | 1025.0 |
| 20260906190047 | 62 | 189 | 2.0 | 3.0 | 0.12 | 0.02 | 0.02 | 71 | 1024.9 |
| 20260906185546 | 63 | 181 | 1.0 | 1.0 | 0.05 | 0.01 | 0.01 | 67 | 1024.7 |
| 20260906185045 | 65 | 162 | 0.0 | 0.0 | 0.00 | 0.00 | 0.00 | 69 | 1024.6 |
| 20260906184540 | 64 | 159 | 2.0 | 2.0 | 0.00 | 0.00 | 0.00 | 58 | 1024.7 |
| 20260906184036 | 65 | 155 | 1.0 | 1.0 | 0.00 | 0.00 | 0.00 | 56 | 1024.5 |
| 20260906183532 | 66 | 161 | 0.0 | 1.0 | 0.00 | 0.00 | 0.00 | 58 | 1024.4 |
| 20260906183027 | 68 | 158 | 2.0 | 2.0 | 0.00 | 0.00 | 0.00 | 48 | 1024.1 |
| 20260906182522 | 70 | 150 | 1.0 | 2.0 | 0.00 | 0.00 | 0.00 | 38 | 1024.1 |
| 20260906182018 | 70 | 153 | 0.0 | 1.0 | 0.00 | 0.00 | 0.00 | 38 | 1024.4 |
| 20260906181514 | 70 | 155 | 2.0 | 2.0 | 0.00 | 0.00 | 0.00 | 36 | 1024.1 |
| 20260906181009 | 70 | 121 | 2.0 | 3.0 | 0.00 | 0.00 | 0.00 | 36 | 1024.1 |
| 20260906180504 | 70 | 143 | 3.0 | 4.0 | 0.00 | 0.00 | 0.00 | 36 | 1024.4 |
| 20260906180002 | 70 | 143 | 1.0 | 1.0 | 0.00 | 0.00 | 0.00 | 39 | 1024.1 |
| 20260906175457 | 70 | 173 | 0.0 | 0.0 | 0.00 | 0.00 | 0.00 | 38 | 1024.4 |
| 20260906174956 | 70 | 175 | 0.0 | 0.0 | 0.00 | 0.00 | 0.00 | 37 | 1024.4 |
| 20260906174454 | 69 | 176 | 1.0 | 2.0 | 0.00 | 0.00 | 0.00 | 38 | 1024.4 |
| 20260906173950 | 69 | 168 | 2.0 | 2.0 | 0.00 | 0.00 | 0.00 | 39 | 1024.4 |
| 20260906173445 | 68 | 161 | 2.0 | 2.0 | 0.00 | 0.00 | 0.00 | 38 | 1024.4 |
| 20260906172945 | 68 | 160 | 0.0 | 0.0 | 0.00 | 0.00 | 0.00 | 39 | 1024.2 |
| 20260906172441 | 68 | 141 | 4.0 | 4.0 | 0.00 | 0.00 | 0.00 | 39 | 1024.4 |
| 20260906171936 | 68 | 161 | 0.0 | 0.0 | 0.00 | 0.00 | 0.00 | 39 | 1024.2 |
| 20260906171431 | 68 | 131 | 1.0 | 1.0 | 0.00 | 0.00 | 0.00 | 39 | 1024.2 |
| 20260906170927 | 67 | 196 | 1.0 | 2.0 | 0.00 | 0.00 | 0.00 | 38 | 1024.2 |
| 20260906170423 | 67 | 152 | 1.0 | 1.0 | 0.00 | 0.00 | 0.00 | 42 | 1024.6 |
| 20260906165919 | 68 | 157 | 0.0 | 0.0 | 0.00 | 0.00 | 0.00 | 39 | 1024.6 |
| 20260906165418 | 67 | 154 | 0.0 | 1.0 | 0.00 | 0.00 | 0.00 | 38 | 1024.6 |
| 20260906164914 | 67 | 161 | 0.0 | 1.0 | 0.00 | 0.00 | 0.00 | 39 | 1024.6 |
| 20260906164412 | 67 | 164 | 1.0 | 2.0 | 0.00 | 0.00 | 0.00 | 39 | 1024.6 |
| 20260906163909 | 67 | 156 | 1.0 | 1.0 | 0.00 | 0.00 | 0.00 | 39 | 1024.5 |
| 20260906163404 | 67 | 179 | 1.0 | 2.0 | 0.00 | 0.00 | 0.00 | 38 | 1024.5 |
| 20260906162902 | 67 | 166 | 2.0 | 3.0 | 0.00 | 0.00 | 0.00 | 39 | 1024.2 |
| 20260906162400 | 68 | 182 | 4.0 | 4.0 | 0.00 | 0.00 | 0.00 | 40 | 1024.2 |
| 20260906161856 | 67 | 212 | 4.0 | 4.0 | 0.00 | 0.00 | 0.00 | 44 | 1024.0 |
| 20260906161355 | 67 | 261 | 6.0 | 7.0 | 0.00 | 0.00 | 0.00 | 44 | 1023.9 |
| 20260906160854 | 66 | 279 | 9.0 | 10.0 | 0.00 | 0.00 | 0.00 | 46 | 1024.1 |
| 20260906160348 | 64 | 218 | 3.0 | 4.0 | 0.00 | 0.00 | 0.00 | 48 | 1024.2 |
| 20260906155847 | 63 | 229 | 5.0 | 7.0 | 0.00 | 0.00 | 0.00 | 49 | 1024.2 |
| 20260906155341 | 62 | 259 | 6.0 | 7.0 | 0.00 | 0.00 | 0.00 | 50 | 1024.4 |
| 20260906154837 | 62 | 272 | 8.0 | 9.0 | 0.00 | 0.00 | 0.00 | 50 | 1024.5 |
| 20260906154332 | 61 | 231 | 4.0 | 7.0 | 0.00 | 0.00 | 0.00 | 51 | 1024.2 |
| 20260906153830 | 61 | 209 | 4.0 | 4.0 | 0.00 | 0.00 | 0.00 | 51 | 1024.5 |
| 20260906153330 | 61 | 250 | 5.0 | 7.0 | 0.00 | 0.00 | 0.00 | 50 | 1024.5 |
| 20260906152825 | 62 | 267 | 6.0 | 8.0 | 0.00 | 0.00 | 0.00 | 50 | 1024.4 |
| 20260906152320 | 60 | 271 | 3.0 | 3.0 | 0.00 | 0.00 | 0.00 | 51 | 1024.2 |
| 20260906151819 | 60 | 275 | 6.0 | 7.0 | 0.00 | 0.00 | 0.00 | 52 | 1024.5 |
| 20260906151315 | 59 | 241 | 6.0 | 7.0 | 0.00 | 0.00 | 0.00 | 53 | 1024.4 |
| 20260906150811 | 60 | 249 | 6.0 | 8.0 | 0.00 | 0.00 | 0.00 | 51 | 1024.5 |
| 20260906150306 | 60 | 254 | 7.0 | 9.0 | 0.00 | 0.00 | 0.00 | 49 | 1024.4 |
| 20260906145805 | 60 | 279 | 6.0 | 10.0 | 0.00 | 0.00 | 0.00 | 50 | 1024.5 |
| 20260906145306 | 59 | 291 | 7.0 | 8.0 | 0.00 | 0.00 | 0.00 | 52 | 1024.4 |
| 20260906144759 | 57 | 280 | 8.0 | 10.0 | 0.00 | 0.00 | 0.00 | 53 | 1024.5 |
| 20260906144253 | 57 | 270 | 7.0 | 11.0 | 0.00 | 0.00 | 0.00 | 54 | 1024.2 |
| 20260906143753 | 57 | 247 | 6.0 | 8.0 | 0.00 | 0.00 | 0.00 | 55 | 1024.0 |
| 20260906143250 | 58 | 286 | 10.0 | 11.0 | 0.00 | 0.00 | 0.00 | 54 | 1023.9 |
| 20260906142749 | 58 | 296 | 6.0 | 9.0 | 0.00 | 0.00 | 0.00 | 54 | 1023.8 |
| 20260906142240 | 57 | 273 | 5.0 | 8.0 | 0.00 | 0.00 | 0.00 | 55 | 1023.8 |
| 20260906141738 | 57 | 279 | 7.0 | 8.0 | 0.00 | 0.00 | 0.00 | 55 | 1023.9 |
| 20260906141234 | 56 | 223 | 9.0 | 10.0 | 0.00 | 0.00 | 0.00 | 56 | 1024.0 |
| 20260906140733 | 56 | 250 | 9.0 | 10.0 | 0.00 | 0.00 | 0.00 | 56 | 1024.0 |
| 20260906140228 | 55 | 282 | 9.0 | 11.0 | 0.00 | 0.00 | 0.00 | 57 | 1024.4 |
| 20260906135724 | 55 | 226 | 14.0 | 17.0 | 0.00 | 0.00 | 0.00 | 58 | 1023.9 |
| 20260906135220 | 54 | 304 | 13.0 | 16.0 | 0.00 | 0.00 | 0.00 | 58 | 1024.0 |
| 20260906134715 | 54 | 229 | 9.0 | 10.0 | 0.00 | 0.00 | 0.00 | 58 | 1023.8 |
| 20260906134211 | 54 | 280 | 11.0 | 13.0 | 0.00 | 0.00 | 0.00 | 59 | 1023.6 |
| 20260906133706 | 54 | 259 | 11.0 | 15.0 | 0.00 | 0.00 | 0.00 | 59 | 1023.6 |
| 20260906133201 | 53 | 279 | 11.0 | 15.0 | 0.00 | 0.00 | 0.00 | 60 | 1023.5 |
| 20260906132656 | 52 | 270 | 11.0 | 11.0 | 0.00 | 0.00 | 0.00 | 61 | 1023.5 |
| 20260906132152 | 53 | 293 | 9.0 | 10.0 | 0.00 | 0.00 | 0.00 | 61 | 1023.6 |
| 20260906131647 | 54 | 280 | 10.0 | 13.0 | 0.00 | 0.00 | 0.00 | 59 | 1023.5 |
| 20260906131142 | 54 | 317 | 9.0 | 10.0 | 0.00 | 0.00 | 0.00 | 58 | 1023.5 |
| 20260906130638 | 54 | 237 | 8.0 | 10.0 | 0.00 | 0.00 | 0.00 | 58 | 1023.6 |
| 20260906130133 | 53 | 277 | 6.0 | 8.0 | 0.00 | 0.00 | 0.00 | 59 | 1023.5 |
| 20260906125630 | 53 | 290 | 8.0 | 10.0 | 0.00 | 0.00 | 0.00 | 62 | 1023.4 |
| 20260906125129 | 53 | 251 | 6.0 | 7.0 | 0.00 | 0.00 | 0.00 | 60 | 1023.5 |
| 20260906124625 | 53 | 246 | 11.0 | 13.0 | 0.00 | 0.00 | 0.00 | 60 | 1023.4 |
| 20260906124120 | 53 | 284 | 5.0 | 8.0 | 0.00 | 0.00 | 0.00 | 61 | 1023.1 |
| 20260906123619 | 52 | 223 | 8.0 | 9.0 | 0.00 | 0.00 | 0.00 | 61 | 1023.6 |
| 20260906123115 | 52 | 267 | 7.0 | 8.0 | 0.00 | 0.00 | 0.00 | 61 | 1023.5 |
| 20260906122615 | 52 | 237 | 8.0 | 9.0 | 0.00 | 0.00 | 0.00 | 61 | 1023.0 |
| 20260906122110 | 53 | 286 | 9.0 | 11.0 | 0.00 | 0.00 | 0.00 | 60 | 1023.4 |
| 20260906121606 | 54 | 235 | 5.0 | 7.0 | 0.00 | 0.00 | 0.00 | 57 | 1023.4 |
| 20260906121103 | 55 | 283 | 6.0 | 9.0 | 0.00 | 0.00 | 0.00 | 55 | 1023.4 |
| 20260906120603 | 55 | 203 | 2.0 | 2.0 | 0.00 | 0.00 | 0.00 | 55 | 1023.1 |
| 20260906120100 | 55 | 252 | 2.0 | 2.0 | 0.00 | 0.00 | 0.00 | 55 | 1023.5 |
| 20260906115554 | 54 | 205 | 3.0 | 3.0 | 0.00 | 0.00 | 0.00 | 57 | 1023.5 |
| 20260906115050 | 54 | 212 | 4.0 | 4.0 | 0.00 | 0.00 | 0.00 | 58 | 1023.6 |
| 20260906114544 | 55 | 277 | 5.0 | 6.0 | 0.00 | 0.00 | 0.00 | 56 | 1023.4 |
| 20260906114040 | 56 | 281 | 4.0 | 4.0 | 0.00 | 0.00 | 0.00 | 55 | 1023.4 |
| 20260906113539 | 57 | 184 | 1.0 | 1.0 | 0.00 | 0.00 | 0.00 | 54 | 1023.3 |
| 20260906113034 | 57 | 192 | 1.0 | 2.0 | 0.00 | 0.00 | 0.00 | 52 | 1023.4 |
| 20260906112529 | 54 | 202 | 3.0 | 4.0 | 0.00 | 0.00 | 0.00 | 56 | 1023.6 |
| 20260906112025 | 54 | 289 | 3.0 | 4.0 | 0.00 | 0.00 | 0.00 | 58 | 1023.3 |
| 20260906111524 | 54 | 269 | 5.0 | 6.0 | 0.00 | 0.00 | 0.00 | 58 | 1023.3 |
| 20260906111020 | 55 | 255 | 5.0 | 6.0 | 0.00 | 0.00 | 0.00 | 57 | 1023.5 |
| 20260906110519 | 55 | 276 | 6.0 | 8.0 | 0.00 | 0.00 | 0.00 | 56 | 1023.3 |
| 20260906110019 | 55 | 255 | 6.0 | 8.0 | 0.00 | 0.00 | 0.00 | 56 | 1023.0 |
| 20260906105514 | 56 | 277 | 5.0 | 7.0 | 0.00 | 0.00 | 0.00 | 56 | 1022.9 |
| 20260906105011 | 56 | 253 | 6.0 | 7.0 | 0.00 | 0.00 | 0.00 | 55 | 1023.1 |
| 20260906104509 | 56 | 251 | 8.0 | 10.0 | 0.00 | 0.00 | 0.00 | 55 | 1023.1 |
| 20260906104009 | 56 | 265 | 10.0 | 11.0 | 0.00 | 0.00 | 0.00 | 55 | 1023.1 |
| 20260906103508 | 57 | 280 | 9.0 | 10.0 | 0.00 | 0.00 | 0.00 | 54 | 1023.0 |
| 20260906103003 | 57 | 266 | 8.0 | 10.0 | 0.00 | 0.00 | 0.00 | 53 | 1023.0 |
| 20260906102502 | 57 | 292 | 7.0 | 8.0 | 0.00 | 0.00 | 0.00 | 53 | 1023.1 |
| 20260906102002 | 57 | 295 | 6.0 | 9.0 | 0.00 | 0.00 | 0.00 | 53 | 1023.0 |
| 20260906101458 | 57 | 236 | 8.0 | 9.0 | 0.00 | 0.00 | 0.00 | 53 | 1023.0 |
| 20260906100953 | 57 | 262 | 9.0 | 14.0 | 0.00 | 0.00 | 0.00 | 53 | 1022.8 |
| 20260906100448 | 57 | 273 | 9.0 | 13.0 | 0.00 | 0.00 | 0.00 | 53 | 1022.7 |
| 20260906095948 | 57 | 277 | 6.0 | 8.0 | 0.00 | 0.00 | 0.00 | 53 | 1022.8 |
| 20260906095443 | 57 | 254 | 6.0 | 8.0 | 0.00 | 0.00 | 0.00 | 52 | 1022.8 |
| 20260906094938 | 58 | 262 | 7.0 | 9.0 | 0.00 | 0.00 | 0.00 | 52 | 1022.9 |
| 20260906094432 | 58 | 269 | 9.0 | 10.0 | 0.00 | 0.00 | 0.00 | 52 | 1022.7 |
| 20260906093928 | 57 | 268 | 8.0 | 9.0 | 0.00 | 0.00 | 0.00 | 53 | 1023.0 |
| 20260906093424 | 57 | 254 | 6.0 | 7.0 | 0.00 | 0.00 | 0.00 | 54 | 1022.9 |
| 20260906092924 | 57 | 281 | 7.0 | 9.0 | 0.00 | 0.00 | 0.00 | 54 | 1022.9 |
| 20260906092424 | 56 | 277 | 6.0 | 8.0 | 0.00 | 0.00 | 0.00 | 55 | 1022.9 |
| 20260906091920 | 57 | 257 | 6.0 | 8.0 | 0.00 | 0.00 | 0.00 | 53 | 1023.0 |
| 20260906091415 | 57 | 264 | 8.0 | 10.0 | 0.00 | 0.00 | 0.00 | 52 | 1022.9 |
| 20260906090912 | 57 | 268 | 5.0 | 7.0 | 0.00 | 0.00 | 0.00 | 52 | 1023.1 |
| 20260906090412 | 56 | 245 | 4.0 | 4.0 | 0.00 | 0.00 | 0.00 | 53 | 1023.1 |
| 20260906085906 | 56 | 246 | 3.0 | 3.0 | 0.00 | 0.00 | 0.00 | 55 | 1023.4 |
| 20260906085359 | 56 | 229 | 2.0 | 2.0 | 0.00 | 0.00 | 0.00 | 54 | 1023.3 |
| 20260906084854 | 58 | 209 | 4.0 | 4.0 | 0.00 | 0.00 | 0.00 | 51 | 1023.3 |
| 20260906084354 | 58 | 270 | 5.0 | 7.0 | 0.00 | 0.00 | 0.00 | 50 | 1023.1 |
| 20260906083848 | 58 | 254 | 6.0 | 7.0 | 0.00 | 0.00 | 0.00 | 51 | 1023.3 |
| 20260906083344 | 58 | 271 | 5.0 | 8.0 | 0.00 | 0.00 | 0.00 | 50 | 1023.3 |
| 20260906082843 | 57 | 260 | 5.0 | 7.0 | 0.00 | 0.00 | 0.00 | 52 | 1023.5 |
| 20260906082338 | 57 | 255 | 2.0 | 3.0 | 0.00 | 0.00 | 0.00 | 53 | 1023.4 |
| 20260906081834 | 57 | 195 | 2.0 | 2.0 | 0.00 | 0.00 | 0.00 | 53 | 1023.3 |
| 20260906081330 | 58 | 174 | 1.0 | 1.0 | 0.00 | 0.00 | 0.00 | 52 | 1023.5 |
| 20260906080826 | 60 | 277 | 5.0 | 6.0 | 0.00 | 0.00 | 0.00 | 49 | 1023.4 |
| 20260906080322 | 60 | 194 | 2.0 | 2.0 | 0.00 | 0.00 | 0.00 | 48 | 1023.3 |
| 20260906075821 | 60 | 187 | 2.0 | 3.0 | 0.00 | 0.00 | 0.00 | 48 | 1023.5 |
| 20260906075316 | 60 | 236 | 6.0 | 7.0 | 0.00 | 0.00 | 0.00 | 48 | 1023.1 |
| 20260906074812 | 59 | 274 | 7.0 | 9.0 | 0.00 | 0.00 | 0.00 | 48 | 1023.4 |
| 20260906074311 | 59 | 273 | 4.0 | 4.0 | 0.00 | 0.00 | 0.00 | 49 | 1023.3 |
| 20260906073810 | 59 | 346 | 4.0 | 6.0 | 0.00 | 0.00 | 0.00 | 49 | 1023.3 |
| 20260906073305 | 59 | 204 | 2.0 | 4.0 | 0.00 | 0.00 | 0.00 | 49 | 1023.5 |
| 20260906072801 | 59 | 218 | 3.0 | 3.0 | 0.00 | 0.00 | 0.00 | 49 | 1023.5 |
| 20260906072257 | 59 | 196 | 2.0 | 2.0 | 0.00 | 0.00 | 0.00 | 49 | 1023.5 |
| 20260906071753 | 59 | 158 | 1.0 | 1.0 | 0.00 | 0.00 | 0.00 | 48 | 1023.8 |
| 20260906071252 | 59 | 179 | 0.0 | 1.0 | 0.00 | 0.00 | 0.00 | 48 | 1023.6 |
| 20260906070744 | 59 | 185 | 0.0 | 0.0 | 0.00 | 0.00 | 0.00 | 49 | 1023.6 |
| 20260906070239 | 59 | 181 | 0.0 | 1.0 | 0.00 | 0.00 | 0.00 | 48 | 1023.5 |
| 20260906065738 | 58 | 118 | 1.0 | 2.0 | 0.00 | 0.00 | 0.00 | 49 | 1023.4 |
| 20260906065234 | 58 | 168 | 0.0 | 0.0 | 0.00 | 0.00 | 0.00 | 50 | 1023.4 |
| 20260906064729 | 59 | 172 | 0.0 | 0.0 | 0.00 | 0.00 | 0.00 | 48 | 1023.6 |
| 20260906064225 | 58 | 203 | 1.0 | 1.0 | 0.00 | 0.00 | 0.00 | 47 | 1023.5 |
| 20260906063719 | 56 | 151 | 0.0 | 0.0 | 0.00 | 0.00 | 0.00 | 53 | 1023.4 |
| 20260906063215 | 56 | 151 | 0.0 | 0.0 | 0.00 | 0.00 | 0.00 | 52 | 1023.6 |
| 20260906062711 | 57 | 151 | 0.0 | 0.0 | 0.00 | 0.00 | 0.00 | 52 | 1023.6 |
| 20260906062210 | 57 | 150 | 0.0 | 0.0 | 0.00 | 0.00 | 0.00 | 51 | 1023.5 |
| 20260906061706 | 58 | 150 | 0.0 | 0.0 | 0.00 | 0.00 | 0.00 | 49 | 1023.4 |
| 20260906061202 | 57 | 150 | 0.0 | 1.0 | 0.00 | 0.00 | 0.00 | 51 | 1023.3 |
| 20260906060657 | 58 | 150 | 1.0 | 1.0 | 0.00 | 0.00 | 0.00 | 49 | 1023.4 |
| 20260906060154 | 57 | 152 | 1.0 | 1.0 | 0.00 | 0.00 | 0.00 | 49 | 1023.4 |
| 20260906055649 | 57 | 166 | 0.0 | 0.0 | 0.00 | 0.00 | 0.00 | 51 | 1023.5 |
| 20260906055144 | 57 | 166 | 0.0 | 0.0 | 0.00 | 0.00 | 0.00 | 51 | 1023.4 |
| 20260906054640 | 57 | 166 | 1.0 | 1.0 | 0.00 | 0.00 | 0.00 | 52 | 1023.6 |
| 20260906054135 | 57 | 167 | 0.0 | 0.0 | 0.00 | 0.00 | 0.00 | 51 | 1023.3 |
| 20260906053631 | 57 | 167 | 0.0 | 1.0 | 0.00 | 0.00 | 0.00 | 51 | 1023.6 |
| 20260906053126 | 57 | 168 | 0.0 | 0.0 | 0.00 | 0.00 | 0.00 | 51 | 1023.5 |
| 20260906052621 | 57 | 166 | 0.0 | 1.0 | 0.00 | 0.00 | 0.00 | 51 | 1023.4 |
| 20260906052118 | 57 | 159 | 0.0 | 0.0 | 0.00 | 0.00 | 0.00 | 50 | 1023.3 |
| 20260906051614 | 59 | 159 | 0.0 | 1.0 | 0.00 | 0.00 | 0.00 | 49 | 1023.5 |
| 20260906051109 | 58 | 152 | 2.0 | 2.0 | 0.00 | 0.00 | 0.00 | 47 | 1023.6 |
| 20260906050604 | 59 | 182 | 1.0 | 1.0 | 0.00 | 0.00 | 0.00 | 50 | 1023.4 |
| 20260906050059 | 60 | 188 | 0.0 | 0.0 | 0.00 | 0.00 | 0.00 | 48 | 1023.6 |
| 20260906045557 | 63 | 195 | 0.0 | 0.0 | 0.00 | 0.00 | 0.00 | 45 | 1023.6 |
| 20260906045053 | 64 | 217 | 3.0 | 3.0 | 0.00 | 0.00 | 0.00 | 40 | 1023.4 |
| 20260906044548 | 60 | 200 | 1.0 | 2.0 | 0.00 | 0.00 | 0.00 | 45 | 1023.8 |
| 20260906044043 | 60 | 190 | 0.0 | 1.0 | 0.00 | 0.00 | 0.00 | 47 | 1023.4 |
| 20260906043539 | 61 | 189 | 0.0 | 0.0 | 0.00 | 0.00 | 0.00 | 45 | 1023.5 |
| 20260906043035 | 62 | 194 | 0.0 | 1.0 | 0.00 | 0.00 | 0.00 | 44 | 1023.5 |
| 20260906042533 | 62 | 163 | 1.0 | 2.0 | 0.00 | 0.00 | 0.00 | 44 | 1023.3 |
| 20260906042029 | 62 | 192 | 0.0 | 0.0 | 0.00 | 0.00 | 0.00 | 43 | 1023.4 |
| 20260906041525 | 62 | 184 | 0.0 | 1.0 | 0.00 | 0.00 | 0.00 | 43 | 1023.3 |
| 20260906041025 | 61 | 184 | 0.0 | 1.0 | 0.00 | 0.00 | 0.00 | 43 | 1023.6 |
| 20260906040520 | 61 | 160 | 0.0 | 0.0 | 0.00 | 0.00 | 0.00 | 44 | 1023.8 |
| 20260906040015 | 62 | 159 | 0.0 | 0.0 | 0.00 | 0.00 | 0.00 | 44 | 1023.6 |
| 20260906035510 | 62 | 159 | 0.0 | 1.0 | 0.00 | 0.00 | 0.00 | 43 | 1023.6 |
| 20260906035006 | 64 | 168 | 1.0 | 1.0 | 0.00 | 0.00 | 0.00 | 41 | 1023.6 |
| 20260906034506 | 66 | 194 | 1.0 | 2.0 | 0.00 | 0.00 | 0.00 | 37 | 1023.5 |
| 20260906034001 | 66 | 194 | 1.0 | 1.0 | 0.00 | 0.00 | 0.00 | 38 | 1023.4 |
| 20260906033455 | 65 | 193 | 0.0 | 0.0 | 0.00 | 0.00 | 0.00 | 39 | 1023.4 |
| 20260906032952 | 67 | 193 | 1.0 | 1.0 | 0.00 | 0.00 | 0.00 | 39 | 1023.1 |
| 20260906032448 | 67 | 193 | 1.0 | 1.0 | 0.00 | 0.00 | 0.00 | 36 | 1023.3 |
| 20260906031942 | 67 | 193 | 2.0 | 2.0 | 0.00 | 0.00 | 0.00 | 36 | 1023.4 |
| 20260906031438 | 67 | 193 | 2.0 | 2.0 | 0.00 | 0.00 | 0.00 | 36 | 1023.1 |
| 20260906030933 | 68 | 196 | 3.0 | 3.0 | 0.00 | 0.00 | 0.00 | 35 | 1023.1 |
| 20260906030428 | 68 | 197 | 3.0 | 3.0 | 0.00 | 0.00 | 0.00 | 35 | 1022.8 |
| 20260906025928 | 68 | 211 | 4.0 | 4.0 | 0.00 | 0.00 | 0.00 | 34 | 1022.7 |
| 20260906025422 | 69 | 194 | 4.0 | 4.0 | 0.00 | 0.00 | 0.00 | 34 | 1022.7 |
| 20260906024921 | 69 | 188 | 2.0 | 2.0 | 0.00 | 0.00 | 0.00 | 34 | 1022.7 |
| 20260906024420 | 69 | 206 | 3.0 | 3.0 | 0.00 | 0.00 | 0.00 | 34 | 1022.5 |
| 20260906023910 | 69 | 203 | 2.0 | 2.0 | 0.00 | 0.00 | 0.00 | 34 | 1022.7 |
| 20260906023407 | 69 | 212 | 4.0 | 4.0 | 0.00 | 0.00 | 0.00 | 33 | 1022.2 |
| 20260906022906 | 69 | 217 | 3.0 | 3.0 | 0.00 | 0.00 | 0.00 | 34 | 1022.2 |
| 20260906022401 | 70 | 206 | 2.0 | 3.0 | 0.00 | 0.00 | 0.00 | 34 | 1022.0 |
| 20260906021857 | 70 | 204 | 2.0 | 2.0 | 0.00 | 0.00 | 0.00 | 34 | 1021.9 |
| 20260906021356 | 70 | 205 | 2.0 | 2.0 | 0.00 | 0.00 | 0.00 | 33 | 1022.0 |
| 20260906020851 | 71 | 204 | 3.0 | 3.0 | 0.00 | 0.00 | 0.00 | 34 | 1022.0 |
| 20260906020345 | 71 | 227 | 3.0 | 3.0 | 0.00 | 0.00 | 0.00 | 33 | 1021.8 |
| 20260906015839 | 72 | 201 | 3.0 | 3.0 | 0.00 | 0.00 | 0.00 | 32 | 1021.9 |
| 20260906015338 | 73 | 212 | 4.0 | 4.0 | 0.00 | 0.00 | 0.00 | 31 | 1021.8 |
| 20260906014833 | 73 | 210 | 4.0 | 4.0 | 0.00 | 0.00 | 0.00 | 31 | 1022.0 |
| 20260906014328 | 74 | 217 | 4.0 | 4.0 | 0.00 | 0.00 | 0.00 | 30 | 1022.0 |
| 20260906013824 | 75 | 219 | 5.0 | 6.0 | 0.00 | 0.00 | 0.00 | 29 | 1022.0 |
| 20260906013319 | 76 | 211 | 4.0 | 6.0 | 0.00 | 0.00 | 0.00 | 29 | 1022.0 |
| 20260906012814 | 76 | 189 | 5.0 | 6.0 | 0.00 | 0.00 | 0.00 | 28 | 1022.0 |
| 20260906012309 | 77 | 211 | 2.0 | 3.0 | 0.00 | 0.00 | 0.00 | 28 | 1022.0 |
| 20260906011804 | 77 | 218 | 4.0 | 4.0 | 0.00 | 0.00 | 0.00 | 28 | 1021.9 |
| 20260906011304 | 77 | 236 | 3.0 | 3.0 | 0.00 | 0.00 | 0.00 | 27 | 1022.0 |
| 20260906010800 | 78 | 220 | 5.0 | 6.0 | 0.00 | 0.00 | 0.00 | 27 | 1022.0 |
| 20260906010256 | 78 | 259 | 6.0 | 7.0 | 0.00 | 0.00 | 0.00 | 26 | 1021.9 |
| 20260906005750 | 78 | 232 | 6.0 | 7.0 | 0.00 | 0.00 | 0.00 | 26 | 1022.2 |
| 20260906005250 | 78 | 170 | 8.0 | 9.0 | 0.00 | 0.00 | 0.00 | 26 | 1022.2 |
| 20260906004749 | 78 | 195 | 4.0 | 4.0 | 0.00 | 0.00 | 0.00 | 26 | 1022.0 |
| 20260906004244 | 79 | 208 | 10.0 | 10.0 | 0.00 | 0.00 | 0.00 | 25 | 1021.9 |
| 20260906003738 | 79 | 215 | 4.0 | 6.0 | 0.00 | 0.00 | 0.00 | 25 | 1022.2 |
| 20260906003235 | 79 | 249 | 9.0 | 10.0 | 0.00 | 0.00 | 0.00 | 25 | 1021.8 |
| 20260906002734 | 80 | 221 | 8.0 | 9.0 | 0.00 | 0.00 | 0.00 | 25 | 1021.9 |
| 20260906002234 | 79 | 245 | 5.0 | 6.0 | 0.00 | 0.00 | 0.00 | 25 | 1021.8 |
| 20260906001730 | 80 | 220 | 11.0 | 14.0 | 0.00 | 0.00 | 0.00 | 25 | 1021.7 |
| 20260906001225 | 80 | 207 | 7.0 | 9.0 | 0.00 | 0.00 | 0.00 | 25 | 1021.7 |
| 20260906000720 | 81 | 227 | 5.0 | 6.0 | 0.00 | 0.00 | 0.00 | 24 | 1021.7 |
| 20260906000215 | 80 | 244 | 6.0 | 8.0 | 0.00 | 0.00 | 0.00 | 25 | 1021.8 |
| 20260905235715 | 80 | 215 | 10.0 | 11.0 | 0.00 | 0.00 | 0.00 | 25 | 1021.9 |
| 20260905235209 | 80 | 209 | 10.0 | 11.0 | 0.00 | 0.00 | 0.00 | 25 | 1021.9 |
| 20260905234705 | 80 | 248 | 7.0 | 9.0 | 0.00 | 0.00 | 0.00 | 25 | 1021.9 |
| 20260905234200 | 80 | 202 | 5.0 | 6.0 | 0.00 | 0.00 | 0.00 | 24 | 1022.0 |